| time (UTC) | temp C | wind direction | speed KPH | gust KPH | rain 1hr cm | rain 24hr cm | rain mn cm | humidity % | barometer mb |
| 20260503010406 | 5 | 250 | 0.0 | 0.0 | 0.00 | 0.30 | 0.30 | 95 | 1009.7 |
| 20260503005903 | 6 | 250 | 0.0 | 0.0 | 0.00 | 0.30 | 0.30 | 95 | 1009.7 |
| 20260503005401 | 6 | 250 | 0.0 | 0.0 | 0.13 | 0.30 | 0.30 | 95 | 1009.6 |
| 20260503004856 | 6 | 250 | 0.0 | 0.0 | 0.13 | 0.30 | 0.30 | 95 | 1009.8 |
| 20260503004354 | 6 | 250 | 0.0 | 0.0 | 0.00 | 0.28 | 0.28 | 95 | 1009.8 |
| 20260503003852 | 6 | 250 | 0.0 | 0.0 | 0.00 | 0.28 | 0.28 | 95 | 1009.6 |
| 20260503003348 | 6 | 250 | 0.0 | 0.0 | 0.00 | 0.28 | 0.28 | 95 | 1009.7 |
| 20260503002845 | 6 | 250 | 0.0 | 0.0 | 0.00 | 0.28 | 0.28 | 95 | 1009.7 |
| 20260503002343 | 6 | 250 | 0.0 | 0.0 | 0.18 | 0.28 | 0.28 | 95 | 1009.5 |
| 20260503001839 | 6 | 250 | 0.0 | 0.0 | 0.18 | 0.28 | 0.28 | 95 | 1009.5 |
| 20260503001335 | 6 | 250 | 0.0 | 0.0 | 0.00 | 0.25 | 0.25 | 95 | 1009.3 |
| 20260503000832 | 6 | 250 | 0.0 | 0.0 | 0.00 | 0.25 | 0.25 | 95 | 1009.1 |
| 20260503000330 | 6 | 250 | 0.0 | 0.0 | 0.00 | 0.25 | 0.25 | 95 | 1009.3 |
| 20260502235827 | 6 | 250 | 0.0 | 0.0 | 0.00 | 0.25 | 0.25 | 95 | 1009.1 |
| 20260502235324 | 6 | 250 | 0.0 | 0.0 | 0.00 | 0.25 | 0.25 | 95 | 1009.4 |
| 20260502234821 | 6 | 250 | 0.0 | 0.0 | 0.00 | 0.25 | 0.25 | 95 | 1009.2 |
| 20260502234318 | 6 | 250 | 0.0 | 0.0 | 0.00 | 0.25 | 0.25 | 95 | 1009.3 |
| 20260502233814 | 6 | 250 | 0.0 | 0.0 | 0.00 | 0.25 | 0.25 | 95 | 1009.4 |
| 20260502233311 | 6 | 250 | 0.0 | 0.0 | 0.00 | 0.25 | 0.25 | 95 | 1009.5 |
| 20260502232808 | 6 | 250 | 0.0 | 0.0 | 0.00 | 0.25 | 0.25 | 95 | 1009.3 |
| 20260502232305 | 6 | 250 | 0.0 | 0.0 | 0.00 | 0.25 | 0.25 | 95 | 1009.0 |
| 20260502231800 | 6 | 250 | 0.0 | 0.0 | 0.00 | 0.25 | 0.25 | 95 | 1009.1 |
| 20260502231258 | 6 | 250 | 0.0 | 0.0 | 0.00 | 0.25 | 0.25 | 95 | 1009.0 |
| 20260502230756 | 6 | 250 | 0.0 | 0.0 | 0.18 | 0.25 | 0.25 | 95 | 1009.0 |
| 20260502230254 | 6 | 250 | 0.0 | 0.0 | 0.18 | 0.25 | 0.25 | 95 | 1009.0 |
| 20260502225750 | 6 | 250 | 0.0 | 1.6 | 0.00 | 0.23 | 0.23 | 95 | 1009.2 |
| 20260502225247 | 6 | 250 | 0.0 | 0.0 | 0.00 | 0.23 | 0.23 | 95 | 1008.8 |
| 20260502224744 | 6 | 250 | 0.0 | 0.0 | 0.00 | 0.23 | 0.23 | 95 | 1009.1 |
| 20260502224241 | 6 | 250 | 0.0 | 0.0 | 0.00 | 0.23 | 0.23 | 95 | 1009.1 |
| 20260502223738 | 6 | 250 | 0.0 | 0.0 | 0.00 | 0.23 | 0.23 | 95 | 1008.9 |
| 20260502223236 | 6 | 250 | 0.0 | 0.0 | 0.00 | 0.23 | 0.23 | 95 | 1009.0 |
| 20260502222734 | 6 | 250 | 0.0 | 0.0 | 0.00 | 0.23 | 0.23 | 95 | 1009.1 |
| 20260502222230 | 6 | 250 | 0.0 | 0.0 | 0.00 | 0.23 | 0.23 | 95 | 1009.0 |
| 20260502221726 | 6 | 250 | 0.0 | 0.0 | 0.00 | 0.23 | 0.23 | 95 | 1008.9 |
| 20260502221223 | 6 | 250 | 0.0 | 0.0 | 0.13 | 0.23 | 0.23 | 95 | 1009.1 |
| 20260502220719 | 6 | 250 | 0.0 | 0.0 | 0.18 | 0.20 | 0.20 | 95 | 1009.0 |
| 20260502220215 | 6 | 250 | 0.0 | 0.0 | 0.18 | 0.20 | 0.20 | 95 | 1009.2 |
| 20260502215713 | 6 | 250 | 0.0 | 0.0 | 0.00 | 0.18 | 0.18 | 95 | 1009.2 |
| 20260502215209 | 6 | 250 | 0.0 | 0.0 | 0.13 | 0.18 | 0.18 | 95 | 1009.2 |
| 20260502214707 | 6 | 250 | 0.0 | 0.0 | 0.13 | 0.18 | 0.18 | 94 | 1009.5 |
| 20260502214204 | 6 | 250 | 0.0 | 0.0 | 0.00 | 0.15 | 0.15 | 94 | 1009.4 |
| 20260502213701 | 6 | 250 | 0.0 | 0.0 | 0.00 | 0.15 | 0.15 | 94 | 1009.3 |
| 20260502213158 | 6 | 250 | 0.0 | 0.0 | 0.00 | 0.15 | 0.15 | 94 | 1009.1 |
| 20260502212656 | 6 | 250 | 0.0 | 0.0 | 0.00 | 0.15 | 0.15 | 94 | 1009.2 |
| 20260502212155 | 6 | 250 | 0.0 | 0.0 | 0.00 | 0.15 | 0.15 | 94 | 1009.2 |
| 20260502211650 | 6 | 250 | 0.0 | 0.0 | 0.00 | 0.15 | 0.15 | 94 | 1009.4 |
| 20260502211147 | 6 | 250 | 0.0 | 0.0 | 0.18 | 0.15 | 0.15 | 94 | 1009.4 |
| 20260502210644 | 6 | 250 | 0.0 | 0.0 | 0.18 | 0.15 | 0.15 | 94 | 1009.5 |
| 20260502210141 | 6 | 250 | 0.0 | 0.0 | 0.00 | 0.13 | 0.13 | 94 | 1009.3 |
| 20260502205638 | 6 | 250 | 0.0 | 0.0 | 0.00 | 0.13 | 0.13 | 94 | 1009.4 |
| 20260502205135 | 6 | 250 | 0.0 | 0.0 | 0.00 | 0.13 | 0.13 | 94 | 1009.4 |
| 20260502204632 | 6 | 250 | 0.0 | 0.0 | 0.00 | 0.13 | 0.13 | 94 | 1009.4 |
| 20260502204130 | 6 | 250 | 0.0 | 0.0 | 0.00 | 0.13 | 0.13 | 94 | 1009.3 |
| 20260502203626 | 6 | 250 | 0.0 | 0.0 | 0.13 | 0.13 | 0.13 | 94 | 1009.3 |
| 20260502203124 | 6 | 250 | 0.0 | 0.0 | 0.13 | 0.13 | 0.13 | 94 | 1009.3 |
| 20260502202619 | 6 | 250 | 0.0 | 0.0 | 0.00 | 0.10 | 0.10 | 94 | 1009.3 |
| 20260502202117 | 6 | 250 | 0.0 | 0.0 | 0.00 | 0.10 | 0.10 | 94 | 1009.3 |
| 20260502201613 | 6 | 250 | 0.0 | 0.0 | 0.00 | 0.10 | 0.10 | 94 | 1009.3 |
| 20260502201104 | 6 | 250 | 0.0 | 0.0 | 0.00 | 0.10 | 0.10 | 93 | 1009.3 |
| 20260502200600 | 6 | 250 | 0.0 | 0.0 | 0.00 | 0.10 | 0.10 | 93 | 1009.3 |
| 20260502200058 | 6 | 250 | 0.0 | 0.0 | 0.00 | 0.10 | 0.10 | 93 | 1009.4 |
| 20260502195556 | 6 | 250 | 0.0 | 0.0 | 0.00 | 0.10 | 0.10 | 92 | 1009.3 |
| 20260502195051 | 6 | 250 | 0.0 | 0.0 | 0.18 | 0.10 | 0.10 | 92 | 1009.5 |
| 20260502194548 | 6 | 250 | 0.0 | 0.0 | 0.18 | 0.10 | 0.10 | 91 | 1009.4 |
| 20260502194044 | 6 | 250 | 0.0 | 0.0 | 0.00 | 0.08 | 0.08 | 91 | 1009.6 |
| 20260502193542 | 6 | 250 | 0.0 | 0.0 | 0.00 | 0.08 | 0.08 | 90 | 1009.6 |
| 20260502193039 | 6 | 250 | 0.0 | 0.0 | 0.00 | 0.08 | 0.08 | 90 | 1009.7 |
| 20260502192534 | 6 | 250 | 0.0 | 1.6 | 0.00 | 0.08 | 0.08 | 89 | 1009.8 |
| 20260502192032 | 6 | 250 | 0.0 | 0.0 | 0.00 | 0.08 | 0.08 | 89 | 1009.7 |
| 20260502191529 | 7 | 250 | 0.0 | 0.0 | 0.00 | 0.08 | 0.08 | 88 | 1009.7 |
| 20260502191027 | 7 | 250 | 0.0 | 0.0 | 0.00 | 0.08 | 0.08 | 88 | 1009.6 |
| 20260502190524 | 7 | 250 | 0.0 | 0.0 | 0.00 | 0.08 | 0.08 | 88 | 1010.0 |
| 20260502190021 | 6 | 250 | 0.0 | 0.0 | 0.00 | 0.08 | 0.08 | 88 | 1009.8 |
| 20260502185515 | 6 | 250 | 0.0 | 0.0 | 0.00 | 0.08 | 0.08 | 88 | 1009.9 |
| 20260502185013 | 6 | 250 | 0.0 | 0.0 | 0.00 | 0.08 | 0.08 | 88 | 1010.1 |
| 20260502184508 | 6 | 250 | 0.0 | 0.0 | 0.00 | 0.08 | 0.08 | 89 | 1010.1 |
| 20260502184005 | 6 | 250 | 1.6 | 4.8 | 0.00 | 0.08 | 0.08 | 89 | 1010.2 |
| 20260502183501 | 6 | 250 | 0.0 | 0.0 | 0.00 | 0.08 | 0.08 | 89 | 1010.3 |
| 20260502182955 | 6 | 250 | 0.0 | 0.0 | 0.00 | 0.08 | 0.08 | 89 | 1010.2 |
| 20260502182452 | 6 | 250 | 0.0 | 0.0 | 0.00 | 0.08 | 0.08 | 89 | 1010.3 |
| 20260502181948 | 6 | 250 | 0.0 | 0.0 | 0.00 | 0.08 | 0.08 | 89 | 1010.4 |
| 20260502181446 | 6 | 250 | 0.0 | 0.0 | 0.00 | 0.08 | 0.08 | 89 | 1010.3 |
| 20260502180945 | 6 | 250 | 0.0 | 0.0 | 0.00 | 0.08 | 0.08 | 89 | 1010.3 |
| 20260502180441 | 6 | 250 | 0.0 | 0.0 | 0.00 | 0.08 | 0.08 | 89 | 1010.1 |
| 20260502170401 | 6 | 250 | 0.0 | 0.0 | 0.00 | 0.08 | 0.08 | 88 | 1010.2 |
| 20260502164342 | 6 | 250 | 0.0 | 0.0 | 0.00 | 0.08 | 0.08 | 87 | 1010.1 |
| 20260502163838 | 6 | 250 | 0.0 | 0.0 | 0.00 | 0.08 | 0.08 | 87 | 1010.0 |
| 20260502163334 | 5 | 250 | 0.0 | 0.0 | 0.00 | 0.08 | 0.08 | 87 | 1010.5 |
| 20260502162832 | 6 | 250 | 0.0 | 0.0 | 0.00 | 0.08 | 0.08 | 87 | 1010.4 |
| 20260502162329 | 5 | 250 | 0.0 | 0.0 | 0.00 | 0.08 | 0.08 | 87 | 1010.3 |
| 20260502161826 | 5 | 250 | 0.0 | 0.0 | 0.00 | 0.08 | 0.08 | 87 | 1010.3 |
| 20260502161321 | 5 | 250 | 0.0 | 0.0 | 0.00 | 0.08 | 0.08 | 87 | 1010.4 |
| 20260502160820 | 5 | 250 | 0.0 | 0.0 | 0.00 | 0.08 | 0.08 | 86 | 1010.5 |
| 20260502160318 | 5 | 250 | 0.0 | 0.0 | 0.00 | 0.08 | 0.08 | 86 | 1010.6 |
| 20260502152247 | 6 | 250 | 3.2 | 3.2 | 0.00 | 0.08 | 0.08 | 85 | 1010.7 |
| 20260502151745 | 5 | 250 | 0.0 | 3.2 | 0.00 | 0.08 | 0.08 | 85 | 1010.7 |
| 20260502151242 | 6 | 250 | 0.0 | 0.0 | 0.00 | 0.08 | 0.08 | 85 | 1010.8 |
| 20260502150739 | 6 | 250 | 1.6 | 3.2 | 0.00 | 0.08 | 0.08 | 85 | 1010.7 |
| 20260502150236 | 5 | 250 | 0.0 | 0.0 | 0.00 | 0.08 | 0.08 | 86 | 1010.7 |
| 20260502130618 | 5 | 250 | 0.0 | 0.0 | 0.00 | 0.05 | 0.05 | 88 | 1011.4 |
| 20260502130116 | 5 | 250 | 0.0 | 0.0 | 0.00 | 0.05 | 0.05 | 90 | 1011.7 |
| 20260502123601 | 5 | 250 | 0.0 | 0.0 | 0.00 | 0.05 | 0.05 | 91 | 1011.7 |
| 20260502123052 | 5 | 250 | 0.0 | 0.0 | 0.00 | 0.05 | 0.05 | 92 | 1011.8 |
| 20260502122549 | 5 | 250 | 0.0 | 0.0 | 0.00 | 0.05 | 0.05 | 93 | 1011.8 |
| 20260502122046 | 5 | 250 | 0.0 | 0.0 | 0.00 | 0.05 | 0.05 | 93 | 1011.7 |
| 20260502121544 | 5 | 250 | 0.0 | 0.0 | 0.00 | 0.05 | 0.05 | 94 | 1011.7 |
| 20260502121041 | 4 | 250 | 0.0 | 0.0 | 0.00 | 0.05 | 0.05 | 94 | 1011.4 |
| 20260502120537 | 4 | 250 | 0.0 | 0.0 | 0.00 | 0.05 | 0.05 | 94 | 1011.4 |
| 20260502115532 | 4 | 250 | 0.0 | 0.0 | 0.00 | 0.05 | 0.05 | 94 | 1011.5 |
| 20260502115027 | 4 | 250 | 0.0 | 0.0 | 0.00 | 0.05 | 0.05 | 94 | 1011.6 |
| 20260502114524 | 3 | 250 | 0.0 | 0.0 | 0.00 | 0.05 | 0.05 | 94 | 1011.8 |
| 20260502114021 | 3 | 250 | 0.0 | 1.6 | 0.00 | 0.05 | 0.05 | 94 | 1011.6 |
| 20260502113519 | 3 | 250 | 0.0 | 0.0 | 0.00 | 0.05 | 0.05 | 94 | 1011.8 |
| 20260502113017 | 3 | 250 | 0.0 | 0.0 | 0.00 | 0.05 | 0.05 | 94 | 1011.9 |
| 20260502112515 | 3 | 250 | 0.0 | 0.0 | 0.18 | 0.05 | 0.05 | 94 | 1011.8 |
| 20260502112012 | 3 | 250 | 0.0 | 0.0 | 0.18 | 0.05 | 0.05 | 94 | 1012.0 |
| 20260502111509 | 3 | 250 | 0.0 | 0.0 | 0.00 | 0.03 | 0.03 | 93 | 1011.9 |
| 20260502111007 | 3 | 250 | 0.0 | 0.0 | 0.00 | 0.03 | 0.03 | 93 | 1012.0 |
| 20260502110504 | 3 | 250 | 0.0 | 0.0 | 0.13 | 0.03 | 0.03 | 93 | 1011.8 |
| 20260502110001 | 3 | 250 | 0.0 | 0.0 | 0.13 | 0.03 | 0.03 | 92 | 1011.8 |
| 20260502105459 | 2 | 250 | 0.0 | 0.0 | 0.00 | 0.00 | 0.00 | 92 | 1011.8 |
| 20260502104956 | 3 | 250 | 0.0 | 0.0 | 0.00 | 0.00 | 0.00 | 92 | 1011.8 |
| 20260502104453 | 3 | 250 | 0.0 | 1.6 | 0.00 | 0.00 | 0.00 | 91 | 1011.8 |
| 20260502103950 | 3 | 250 | 0.0 | 0.0 | 0.00 | 0.00 | 0.00 | 91 | 1011.6 |
| 20260502103447 | 3 | 250 | 0.0 | 0.0 | 0.00 | 0.00 | 0.00 | 91 | 1012.0 |
| 20260502102939 | 3 | 250 | 0.0 | 0.0 | 0.00 | 0.00 | 0.00 | 89 | 1011.6 |
| 20260502102436 | 3 | 250 | 0.0 | 0.0 | 0.00 | 0.00 | 0.00 | 89 | 1011.1 |
| 20260502101933 | 3 | 250 | 0.0 | 0.0 | 0.00 | 0.00 | 0.00 | 88 | 1011.2 |
| 20260502101431 | 3 | 250 | 0.0 | 0.0 | 0.00 | 0.00 | 0.00 | 89 | 1010.8 |
| 20260502100929 | 2 | 250 | 0.0 | 0.0 | 0.00 | 0.00 | 0.00 | 90 | 1011.1 |
| 20260502100428 | 2 | 250 | 0.0 | 0.0 | 0.00 | 0.00 | 0.00 | 91 | 1010.9 |
| 20260502091402 | 1 | 250 | 0.0 | 0.0 | 0.00 | 0.00 | 0.00 | 90 | 1010.3 |
| 20260502090859 | 2 | 250 | 0.0 | 0.0 | 0.00 | 0.00 | 0.00 | 89 | 1010.5 |
| 20260502090355 | 2 | 250 | 0.0 | 0.0 | 0.00 | 0.00 | 0.00 | 88 | 1010.4 |
| 20260502071250 | 1 | 250 | 0.0 | 0.0 | 0.00 | 0.00 | 0.00 | 89 | 1011.3 |
| 20260502070749 | 1 | 250 | 0.0 | 0.0 | 0.00 | 0.00 | 0.00 | 89 | 1010.9 |
| 20260502070246 | 1 | 250 | 0.0 | 0.0 | 0.00 | 0.00 | 0.00 | 89 | 1010.6 |
| 20260502065744 | 1 | 250 | 0.0 | 0.0 | 0.00 | 0.00 | 0.00 | 89 | 1010.6 |
| 20260502065242 | 1 | 250 | 0.0 | 0.0 | 0.00 | 0.00 | 0.00 | 89 | 1010.7 |
| 20260502064740 | 1 | 250 | 0.0 | 0.0 | 0.00 | 0.00 | 0.00 | 89 | 1010.7 |
| 20260502064238 | 1 | 250 | 0.0 | 0.0 | 0.00 | 0.00 | 0.00 | 89 | 1010.5 |
| 20260502063735 | 1 | 250 | 0.0 | 0.0 | 0.00 | 0.00 | 0.00 | 89 | 1010.4 |
| 20260502063233 | 1 | 250 | 0.0 | 0.0 | 0.00 | 0.00 | 0.00 | 90 | 1010.4 |
| 20260502062729 | 1 | 250 | 0.0 | 0.0 | 0.00 | 0.00 | 0.00 | 90 | 1010.3 |
| 20260502062227 | 1 | 250 | 0.0 | 0.0 | 0.00 | 0.00 | 0.00 | 90 | 1010.4 |
| 20260502061725 | 0 | 250 | 0.0 | 0.0 | 0.00 | 0.00 | 0.00 | 91 | 1010.4 |
| 20260502061223 | 0 | 250 | 0.0 | 0.0 | 0.00 | 0.00 | 0.00 | 91 | 1010.2 |
| 20260502060718 | 0 | 250 | 0.0 | 0.0 | 0.00 | 0.00 | 0.00 | 91 | 1010.2 |
| 20260502060214 | 0 | 250 | 0.0 | 0.0 | 0.00 | 0.00 | 0.00 | 92 | 1010.3 |
| 20260502055712 | 0 | 250 | 0.0 | 0.0 | 0.00 | 0.00 | 0.00 | 92 | 1010.5 |
| 20260502055209 | 0 | 250 | 0.0 | 0.0 | 0.00 | 0.00 | 0.00 | 92 | 1010.2 |
| 20260502054704 | 0 | 250 | 0.0 | 0.0 | 0.00 | 0.00 | 0.00 | 92 | 1010.4 |
| 20260502054200 | 0 | 250 | 0.0 | 0.0 | 0.00 | 0.00 | 0.00 | 92 | 1010.3 |
| 20260502053658 | 0 | 250 | 0.0 | 0.0 | 0.00 | 0.00 | 0.00 | 92 | 1010.2 |
| 20260502053155 | 0 | 250 | 0.0 | 0.0 | 0.00 | 0.00 | 0.00 | 92 | 1010.2 |
| 20260502052653 | 0 | 250 | 0.0 | 0.0 | 0.00 | 0.00 | 0.00 | 91 | 1010.2 |
| 20260502052151 | 0 | 250 | 0.0 | 0.0 | 0.00 | 0.00 | 0.00 | 91 | 1010.3 |
| 20260502051649 | 0 | 250 | 0.0 | 0.0 | 0.00 | 0.00 | 0.00 | 91 | 1010.2 |
| 20260502051146 | 0 | 250 | 0.0 | 0.0 | 0.00 | 0.00 | 0.00 | 91 | 1010.2 |
| 20260502050642 | 0 | 250 | 0.0 | 0.0 | 0.00 | 0.00 | 0.00 | 90 | 1010.1 |
| 20260502050139 | 0 | 250 | 0.0 | 0.0 | 0.00 | 0.00 | 0.00 | 90 | 1010.1 |
| 20260502045636 | 0 | 250 | 0.0 | 0.0 | 0.00 | 0.00 | 0.00 | 90 | 1010.3 |
| 20260502045134 | 0 | 250 | 0.0 | 0.0 | 0.00 | 0.00 | 0.00 | 90 | 1010.2 |
| 20260502044630 | 0 | 250 | 0.0 | 0.0 | 0.00 | 0.00 | 0.00 | 89 | 1010.3 |
| 20260502044126 | 0 | 250 | 0.0 | 0.0 | 0.00 | 0.00 | 0.00 | 89 | 1010.0 |
| 20260502043624 | 0 | 250 | 0.0 | 0.0 | 0.00 | 0.00 | 0.00 | 89 | 1010.0 |
| 20260502043120 | 0 | 250 | 0.0 | 0.0 | 0.00 | 0.00 | 0.00 | 89 | 1010.1 |
| 20260502042615 | 0 | 250 | 0.0 | 0.0 | 0.00 | 0.00 | 0.00 | 88 | 1010.1 |
| 20260502042112 | 0 | 250 | 0.0 | 0.0 | 0.00 | 0.00 | 0.00 | 88 | 1010.2 |
| 20260502041610 | 0 | 250 | 0.0 | 0.0 | 0.00 | 0.00 | 0.00 | 87 | 1009.9 |
| 20260502041107 | 0 | 250 | 0.0 | 0.0 | 0.00 | 0.00 | 0.00 | 87 | 1010.0 |
| 20260502040604 | 0 | 250 | 0.0 | 0.0 | 0.00 | 0.00 | 0.00 | 87 | 1010.0 |
| 20260502035556 | 0 | 250 | 0.0 | 0.0 | 0.00 | 0.00 | 0.00 | 86 | 1010.1 |
| 20260502035054 | 0 | 250 | 0.0 | 0.0 | 0.00 | 0.00 | 0.00 | 86 | 1010.0 |
| 20260502034552 | 0 | 250 | 0.0 | 0.0 | 0.00 | 0.00 | 0.00 | 85 | 1009.9 |
| 20260502034050 | 0 | 250 | 0.0 | 0.0 | 0.00 | 0.00 | 0.00 | 85 | 1009.9 |
| 20260502033548 | 0 | 250 | 0.0 | 0.0 | 0.00 | 0.00 | 0.00 | 85 | 1010.1 |
| 20260502033045 | 0 | 250 | 0.0 | 0.0 | 0.00 | 0.00 | 0.00 | 85 | 1010.0 |
| 20260502032541 | 0 | 250 | 0.0 | 0.0 | 0.00 | 0.00 | 0.00 | 84 | 1009.9 |
| 20260502032038 | 1 | 250 | 0.0 | 0.0 | 0.00 | 0.00 | 0.00 | 84 | 1009.8 |
| 20260502031536 | 1 | 250 | 0.0 | 0.0 | 0.00 | 0.00 | 0.00 | 84 | 1009.8 |
| 20260502031033 | 1 | 250 | 0.0 | 0.0 | 0.00 | 0.00 | 0.00 | 83 | 1009.8 |
| 20260502030532 | 1 | 250 | 0.0 | 0.0 | 0.00 | 0.00 | 0.00 | 82 | 1009.6 |
| 20260502030029 | 1 | 250 | 0.0 | 0.0 | 0.00 | 0.00 | 0.00 | 82 | 1009.6 |
| 20260502025526 | 1 | 250 | 0.0 | 0.0 | 0.00 | 0.00 | 0.00 | 82 | 1009.6 |
| 20260502025025 | 1 | 250 | 0.0 | 0.0 | 0.00 | 0.00 | 0.00 | 82 | 1009.7 |
| 20260502024521 | 1 | 250 | 0.0 | 0.0 | 0.00 | 0.00 | 0.00 | 82 | 1009.8 |
| 20260502024020 | 2 | 250 | 0.0 | 0.0 | 0.00 | 0.00 | 0.00 | 81 | 1009.6 |
| 20260502023517 | 2 | 250 | 0.0 | 0.0 | 0.00 | 0.00 | 0.00 | 79 | 1009.7 |
| 20260502023014 | 2 | 250 | 0.0 | 0.0 | 0.00 | 0.00 | 0.00 | 77 | 1009.6 |
| 20260502022511 | 2 | 250 | 0.0 | 0.0 | 0.00 | 0.00 | 0.00 | 76 | 1009.7 |
| 20260502022009 | 2 | 250 | 0.0 | 0.0 | 0.00 | 0.00 | 0.00 | 76 | 1009.7 |
| 20260502021506 | 2 | 250 | 0.0 | 0.0 | 0.00 | 0.00 | 0.00 | 76 | 1009.7 |
| 20260502021003 | 2 | 250 | 0.0 | 0.0 | 0.00 | 0.00 | 0.00 | 75 | 1009.7 |
| 20260502020500 | 2 | 250 | 0.0 | 0.0 | 0.00 | 0.00 | 0.00 | 75 | 1009.7 |
| 20260502015957 | 2 | 250 | 0.0 | 0.0 | 0.00 | 0.00 | 0.00 | 74 | 1009.7 |
| 20260502015455 | 3 | 250 | 0.0 | 0.0 | 0.00 | 0.00 | 0.00 | 73 | 1009.7 |
| 20260502014951 | 3 | 250 | 0.0 | 0.0 | 0.00 | 0.00 | 0.00 | 71 | 1009.7 |
| 20260502014448 | 3 | 250 | 0.0 | 0.0 | 0.00 | 0.00 | 0.00 | 71 | 1009.7 |
| 20260502013944 | 3 | 250 | 0.0 | 0.0 | 0.00 | 0.00 | 0.00 | 70 | 1009.8 |
| 20260502013440 | 3 | 250 | 0.0 | 0.0 | 0.00 | 0.00 | 0.00 | 70 | 1009.7 |
| 20260502012937 | 3 | 250 | 0.0 | 0.0 | 0.00 | 0.00 | 0.00 | 70 | 1009.7 |
| 20260502012435 | 3 | 250 | 0.0 | 0.0 | 0.00 | 0.00 | 0.00 | 69 | 1009.6 |
| 20260502011932 | 3 | 250 | 0.0 | 0.0 | 0.00 | 0.00 | 0.00 | 67 | 1009.6 |
| 20260502011428 | 3 | 250 | 0.0 | 0.0 | 0.00 | 0.00 | 0.00 | 66 | 1009.4 |
| 20260502010925 | 3 | 250 | 0.0 | 0.0 | 0.00 | 0.00 | 0.00 | 66 | 1009.2 |